Weather History for KTOI - November, 2012

Change the Weather History Date:

Tuesday, November 20, 2012

  Actual Average Record
Temperature  
Mean Temperature 53 °F 54 °F  
Max Temperature 64 °F 67 °F 77 °F (1998)
Min Temperature 41 °F 42 °F 27 °F (2014)
Degree Days  
Heating Degree Days 12 11  
Month to date heating degree days 232 169  
Since 1 July heating degree days 323 267  
Growing Degree Days 3 (Base 50)    
Moisture  
Dew Point 47 °F    
Average Humidity 80    
Maximum Humidity 96    
Minimum Humidity 63    
Precipitation  
Precipitation T in 0.17 in 0.24 in (2004)
Month to date precipitation 0.93 2.81  
Year to date precipitation 50.96 47.95  
Snow  
Snow 0.00 in - - ()
Month to date snowfall 0.0  
Since 1 July snowfall 0.0  
Since 1 September snowfall 0.0  
Snow Depth 0.00 in    
Sea Level Pressure  
Sea Level Pressure 30.15 in    
Wind  
Wind Speed 1 mph (NNW)    
Max Wind Speed 7 mph    
Max Gust Speed 12 mph    
Visibility 5 miles    
Events Fog    
T = Trace of Precipitation, MM = Missing Value Source: NWS Daily Summary

Daily Weather History Graph

Daily Weather History Graph

Search for Another Location

Airport or City:

Trip Planner

Search our weather history database for the weather conditions in past years. The results will help you decide how hot, cold, wet, or windy it might be!

Date:

Astronomy

Nov. 20, 2012 Rise Set
Actual Time 6:17 AM CST 4:42 PM CST
Civil Twilight 5:51 AM CST 5:08 PM CST
Nautical Twilight 5:21 AM CST 5:37 PM CST
Astronomical Twilight 4:52 AM CST 6:07 PM CST
Moon 12:03 PM CST (11/20) 11:58 PM CST (11/20)
Length of Visible Light 11h 16m
Length of Day
10h 24m
First Quarter, 51% of the Moon is Illuminated
Nov 20
First Quarter
Nov 28
Full
Dec 6
Last Quarter
Dec 13
New
Dec 19
First Quarter

Hourly Weather History & Observations

Time (CST) Temp. Dew Point Humidity Pressure Visibility Wind Dir Wind Speed Gust Speed Precip Events Conditions
12:53 AM 48.9 °F 46.0 °F 90% 30.17 in 10.0 mi Calm Calm - N/A   Mostly Cloudy
1:53 AM 48.0 °F 45.0 °F 89% 30.16 in 10.0 mi Calm Calm - N/A   Mostly Cloudy
2:53 AM 45.0 °F 42.1 °F 90% 30.17 in 10.0 mi Calm Calm - N/A   Partly Cloudy
3:53 AM 45.0 °F 42.1 °F 90% 30.17 in 10.0 mi Calm Calm - N/A   Overcast
4:53 AM 44.1 °F 41.0 °F 89% 30.16 in 10.0 mi Calm Calm - N/A   Clear
5:53 AM 42.1 °F 39.9 °F 92% 30.17 in 6.0 mi Calm Calm - N/A   Clear
6:53 AM 42.1 °F 41.0 °F 96% 30.19 in 8.0 mi Calm Calm - N/A   Partly Cloudy
7:53 AM 51.1 °F 48.0 °F 89% 30.20 in 10.0 mi Calm Calm - N/A   Clear
8:53 AM 57.0 °F 52.0 °F 83% 30.21 in 10.0 mi North 4.6 mph - N/A   Clear
9:53 AM 61.0 °F 52.0 °F 72% 30.20 in 10.0 mi NNW 5.8 mph - N/A   Partly Cloudy
10:53 AM 62.1 °F 53.1 °F 72% 30.18 in 10.0 mi WNW 3.5 mph - N/A   Mostly Cloudy
11:53 AM 62.1 °F 53.1 °F 72% 30.15 in 10.0 mi NNE 4.6 mph - 0.00 in   Overcast
12:53 PM 64.0 °F 53.1 °F 67% 30.13 in 10.0 mi North 4.6 mph - 0.00 in   Partly Cloudy
1:53 PM 63.0 °F 52.0 °F 67% 30.11 in 10.0 mi North 3.5 mph - N/A   Mostly Cloudy
2:53 PM 64.0 °F 51.1 °F 63% 30.09 in 10.0 mi Calm Calm - 0.00 in   Partly Cloudy
3:53 PM 62.1 °F 51.1 °F 67% 30.10 in 10.0 mi Calm Calm - N/A   Overcast
4:53 PM 57.0 °F 53.1 °F 87% 30.12 in 10.0 mi Calm Calm - N/A   Mostly Cloudy
5:53 PM 55.0 °F 52.0 °F 89% 30.12 in 10.0 mi Calm Calm - N/A   Mostly Cloudy
6:53 PM 54.0 °F 52.0 °F 93% 30.13 in 10.0 mi Calm Calm - N/A   Partly Cloudy
7:28 PM 53.6 °F 51.8 °F 94% 30.13 in 1.2 mi Calm Calm - N/A   Clear
7:31 PM 51.8 °F 51.8 °F 100% 30.13 in 0.8 mi Calm Calm - N/A   Clear
7:46 PM 51.8 °F 50.0 °F 94% 30.13 in 0.5 mi Calm Calm - N/A Fog Fog
7:53 PM 51.1 °F 50.0 °F 96% 30.13 in 1.0 mi Calm Calm - N/A   Clear
7:55 PM 51.8 °F 50.0 °F 94% 30.13 in 1.8 mi Calm Calm - N/A   Clear
7:57 PM 51.8 °F 50.0 °F 94% 30.13 in 3.0 mi Calm Calm - N/A   Clear
8:35 PM 50.0 °F 48.2 °F 94% 30.14 in 1.2 mi Calm Calm - N/A   Clear
8:38 PM 48.2 °F 48.2 °F 100% 30.14 in 0.8 mi Calm Calm - N/A   Clear
8:48 PM 48.2 °F 46.4 °F 93% 30.14 in 1.2 mi Calm Calm - N/A   Clear
8:50 PM 48.2 °F 46.4 °F 93% 30.14 in 2.5 mi Calm Calm - N/A   Clear
8:53 PM 48.9 °F 46.9 °F 93% 30.14 in 6.0 mi Calm Calm - N/A   Clear
9:03 PM 48.2 °F 46.4 °F 93% 30.14 in 1.5 mi Calm Calm - N/A   Partly Cloudy
9:05 PM 48.2 °F 46.4 °F 93% 30.14 in 0.8 mi Calm Calm - N/A   Mist
9:12 PM 46.4 °F 46.4 °F 100% 30.14 in 0.2 mi Calm Calm - N/A Fog Fog
9:26 PM 46.4 °F 44.6 °F 93% 30.14 in 0.5 mi Calm Calm - N/A Fog Fog
9:53 PM 46.9 °F 45.0 °F 93% 30.14 in 0.2 mi Calm Calm - N/A Fog Fog
10:15 PM 46.4 °F 44.6 °F 93% 30.15 in 0.8 mi Calm Calm - N/A   Mist
10:20 PM 46.4 °F 44.6 °F 93% 30.15 in 1.0 mi Calm Calm - N/A   Mist
10:34 PM 46.4 °F 44.6 °F 93% 30.15 in 0.8 mi Calm Calm - N/A   Mist
10:42 PM 44.6 °F 42.8 °F 93% 30.15 in 1.0 mi Calm Calm - N/A   Mist
10:53 PM 46.0 °F 44.1 °F 93% 30.14 in 0.8 mi Calm Calm - N/A   Mist
11:11 PM 44.6 °F 44.6 °F 100% 30.14 in 0.2 mi Calm Calm - N/A Fog Fog
11:19 PM 44.6 °F 44.6 °F 100% 30.14 in 1.0 mi Calm Calm - N/A   Mist
11:21 PM 44.6 °F 44.6 °F 100% 30.14 in 1.8 mi Calm Calm - N/A   Scattered Clouds
11:28 PM 44.6 °F 42.8 °F 93% 30.14 in 10.0 mi Calm Calm - N/A   Scattered Clouds
11:36 PM 42.8 °F 42.8 °F 100% 30.15 in 1.5 mi Calm Calm - N/A   Partly Cloudy
11:39 PM 42.8 °F 42.8 °F 100% 30.14 in 0.8 mi Calm Calm - N/A   Clear
11:53 PM 43.0 °F 42.1 °F 97% 30.14 in 0.8 mi Calm Calm - N/A   Clear
11:55 PM 42.8 °F 41.0 °F 93% 30.15 in 1.2 mi Calm Calm - N/A   Clear